Time,TemperatureF,DewpointF,PressureIn,WindDirection,WindDirectionDegrees,WindSpeedMPH,WindSpeedGustMPH,Humidity,HourlyPrecipIn,Conditions,Clouds,dailyrainin,SolarRadiationWatts/m^2,SoftwareType,DateUTC
2013-01-14 00:04:00,47.0,47.0,-100.00,SW,217,2.0,6.0,100,0.00,,,-99.99,0.000000,,2013-01-14 05:04:00,
2013-01-14 00:12:00,47.0,47.0,-100.00,SW,217,2.0,6.0,100,0.00,,,-99.99,0.000000,,2013-01-14 05:12:00,
2013-01-14 00:22:00,47.0,47.0,-100.00,SW,217,2.0,6.0,100,0.00,,,-99.99,0.000000,,2013-01-14 05:22:00,
2013-01-14 00:53:00,47.0,47.0,-100.00,SSE,159,2.0,8.0,100,0.00,,,-99.99,0.000000,,2013-01-14 05:53:00,
2013-01-14 01:03:00,47.0,47.0,-100.00,SSE,159,2.0,8.0,100,0.00,,,-99.99,0.000000,,2013-01-14 06:03:00,
2013-01-14 01:12:00,47.0,47.0,-100.00,SSE,159,2.0,8.0,100,0.00,,,-99.99,0.000000,,2013-01-14 06:12:00,
2013-01-14 01:22:00,47.0,47.0,-100.00,SSE,159,2.0,8.0,100,0.00,,,-99.99,0.000000,,2013-01-14 06:22:00,
2013-01-14 01:53:00,48.0,48.0,-100.00,SW,234,4.0,11.0,99,0.00,,,-99.99,0.000000,,2013-01-14 06:53:00,
2013-01-14 02:02:00,48.0,48.0,-100.00,SW,234,4.0,11.0,99,0.00,,,-99.99,0.000000,,2013-01-14 07:02:00,
2013-01-14 02:12:00,48.0,48.0,-100.00,SW,234,4.0,11.0,99,0.00,,,-99.99,0.000000,,2013-01-14 07:12:00,
2013-01-14 02:22:00,48.0,48.0,-100.00,SW,234,4.0,11.0,99,0.00,,,-99.99,0.000000,,2013-01-14 07:22:00,
2013-01-14 02:53:00,47.0,47.0,-100.00,WSW,258,4.0,11.0,99,0.00,,,-99.99,0.000000,,2013-01-14 07:53:00,
2013-01-14 03:02:00,47.0,47.0,-100.00,WSW,258,4.0,11.0,99,0.00,,,-99.99,0.000000,,2013-01-14 08:02:00,
2013-01-14 03:12:00,47.0,47.0,-100.00,WSW,258,4.0,11.0,99,0.00,,,-99.99,0.000000,,2013-01-14 08:12:00,
2013-01-14 03:22:00,47.0,47.0,-100.00,WSW,258,4.0,11.0,99,0.00,,,-99.99,0.000000,,2013-01-14 08:22:00,
2013-01-14 03:53:00,46.0,46.0,-100.00,SW,214,2.0,10.0,99,0.00,,,-99.99,0.000000,,2013-01-14 08:53:00,
2013-01-14 04:03:00,46.0,46.0,-100.00,SW,214,2.0,10.0,99,0.00,,,-99.99,0.000000,,2013-01-14 09:03:00,
2013-01-14 04:12:00,46.0,46.0,-100.00,SW,214,2.0,10.0,99,0.00,,,-99.99,0.000000,,2013-01-14 09:12:00,
2013-01-14 04:23:00,46.0,46.0,-100.00,SW,214,2.0,10.0,99,0.00,,,-99.99,0.000000,,2013-01-14 09:23:00,
2013-01-14 04:53:00,46.0,46.0,-100.00,WSW,245,4.0,8.0,99,0.00,,,-99.99,0.000000,,2013-01-14 09:53:00,
2013-01-14 05:03:00,46.0,46.0,-100.00,WSW,245,4.0,8.0,99,0.00,,,-99.99,0.000000,,2013-01-14 10:03:00,
2013-01-14 05:12:00,46.0,46.0,-100.00,WSW,245,4.0,8.0,99,0.00,,,-99.99,0.000000,,2013-01-14 10:12:00,
2013-01-14 05:23:00,46.0,46.0,-100.00,WSW,245,4.0,8.0,99,0.00,,,-99.99,0.000000,,2013-01-14 10:23:00,
2013-01-14 05:53:00,47.0,47.0,-100.00,SSW,197,2.0,12.0,99,0.00,,,-99.99,0.000000,,2013-01-14 10:53:00,
2013-01-14 06:02:00,47.0,47.0,-100.00,SSW,197,2.0,12.0,99,0.00,,,-99.99,0.000000,,2013-01-14 11:02:00,
2013-01-14 06:12:00,47.0,47.0,-100.00,SSW,197,2.0,12.0,99,0.00,,,-99.99,0.000000,,2013-01-14 11:12:00,
2013-01-14 06:22:00,47.0,47.0,-100.00,SSW,197,2.0,12.0,99,0.00,,,-99.99,0.000000,,2013-01-14 11:22:00,
2013-01-14 06:53:00,48.0,48.0,-100.00,SW,220,3.0,10.0,100,0.00,,,-99.99,0.000000,,2013-01-14 11:53:00,
2013-01-14 07:03:00,48.0,48.0,-100.00,SW,220,3.0,10.0,100,0.00,,,-99.99,0.000000,,2013-01-14 12:03:00,
2013-01-14 07:12:00,48.0,48.0,-100.00,SW,220,3.0,10.0,100,0.00,,,-99.99,0.000000,,2013-01-14 12:12:00,
2013-01-14 07:23:00,48.0,48.0,-100.00,SW,220,3.0,10.0,100,0.00,,,-99.99,0.000000,,2013-01-14 12:23:00,
2013-01-14 07:53:00,47.0,47.0,-100.00,West,269,3.0,8.0,100,0.00,,,-99.99,1.000000,,2013-01-14 12:53:00,
2013-01-14 08:03:00,47.0,47.0,-100.00,West,269,3.0,8.0,100,0.00,,,-99.99,1.000000,,2013-01-14 13:03:00,
2013-01-14 08:13:00,47.0,47.0,-100.00,West,269,3.0,8.0,100,0.00,,,-99.99,1.000000,,2013-01-14 13:13:00,
2013-01-14 08:23:00,47.0,47.0,-100.00,West,269,3.0,8.0,100,0.00,,,-99.99,1.000000,,2013-01-14 13:23:00,
2013-01-14 08:53:00,46.0,46.0,-100.00,SW,231,2.0,7.0,99,0.00,,,-99.99,10.000000,,2013-01-14 13:53:00,
2013-01-14 09:03:00,46.0,46.0,-100.00,SW,231,2.0,7.0,99,0.00,,,-99.99,10.000000,,2013-01-14 14:03:00,
2013-01-14 09:13:00,46.0,46.0,-100.00,SW,231,2.0,7.0,99,0.00,,,-99.99,10.000000,,2013-01-14 14:13:00,
2013-01-14 09:23:00,46.0,46.0,-100.00,SW,231,2.0,7.0,99,0.00,,,-99.99,10.000000,,2013-01-14 14:23:00,
2013-01-14 09:53:00,48.0,48.0,-100.00,West,262,3.0,8.0,99,0.00,,,-99.99,46.000000,,2013-01-14 14:53:00,
2013-01-14 10:03:00,48.0,48.0,-100.00,West,262,3.0,8.0,99,0.00,,,-99.99,46.000000,,2013-01-14 15:03:00,
2013-01-14 10:12:00,48.0,48.0,-100.00,West,262,3.0,8.0,99,0.00,,,-99.99,46.000000,,2013-01-14 15:12:00,
2013-01-14 10:23:00,48.0,48.0,-100.00,West,262,3.0,8.0,99,0.00,,,-99.99,46.000000,,2013-01-14 15:23:00,
2013-01-14 10:53:00,50.0,47.0,-100.00,WSW,258,4.0,9.0,91,0.00,,,-99.99,155.000000,,2013-01-14 15:53:00,
2013-01-14 11:03:00,50.0,47.0,-100.00,WSW,258,4.0,9.0,91,0.00,,,-99.99,155.000000,,2013-01-14 16:03:00,
2013-01-14 11:13:00,50.0,47.0,-100.00,WSW,258,4.0,9.0,91,0.00,,,-99.99,155.000000,,2013-01-14 16:13:00,
2013-01-14 11:23:00,50.0,47.0,-100.00,WSW,258,4.0,9.0,91,0.00,,,-99.99,155.000000,,2013-01-14 16:23:00,
2013-01-14 11:53:00,52.0,48.0,-100.00,SW,229,3.0,10.0,85,0.00,,,-99.99,175.000000,,2013-01-14 16:53:00,
2013-01-14 12:03:00,52.0,48.0,-100.00,SW,229,3.0,10.0,85,0.00,,,-99.99,175.000000,,2013-01-14 17:03:00,
2013-01-14 12:12:00,52.0,48.0,-100.00,SW,229,3.0,10.0,85,0.00,,,-99.99,175.000000,,2013-01-14 17:12:00,
2013-01-14 12:23:00,52.0,48.0,-100.00,SW,229,3.0,10.0,85,0.00,,,-99.99,175.000000,,2013-01-14 17:23:00,
2013-01-14 12:54:00,59.0,48.0,-100.00,West,261,6.0,12.0,67,0.00,,,-99.99,374.000000,,2013-01-14 17:54:00,
2013-01-14 13:03:00,59.0,48.0,-100.00,West,261,6.0,12.0,67,0.00,,,-99.99,374.000000,,2013-01-14 18:03:00,
2013-01-14 13:13:00,59.0,48.0,-100.00,West,261,6.0,12.0,67,0.00,,,-99.99,374.000000,,2013-01-14 18:13:00,
2013-01-14 13:23:00,59.0,48.0,-100.00,West,261,6.0,12.0,67,0.00,,,-99.99,374.000000,,2013-01-14 18:23:00,
2013-01-14 13:53:00,61.0,47.0,-100.00,West,276,5.0,16.0,60,0.01,,,-99.99,372.000000,,2013-01-14 18:53:00,
2013-01-14 14:03:00,61.0,47.0,-100.00,West,276,5.0,16.0,60,0.01,,,-99.99,372.000000,,2013-01-14 19:03:00,
2013-01-14 14:13:00,61.0,47.0,-100.00,West,276,5.0,16.0,60,0.01,,,-99.99,372.000000,,2013-01-14 19:13:00,
2013-01-14 14:22:00,61.0,47.0,-100.00,West,276,5.0,16.0,60,0.01,,,-99.99,372.000000,,2013-01-14 19:22:00,
2013-01-14 14:53:00,61.0,38.0,-100.00,WNW,300,6.0,16.0,43,0.00,,,-99.99,289.000000,,2013-01-14 19:53:00,
2013-01-14 15:04:00,61.0,38.0,-100.00,WNW,300,6.0,16.0,43,0.00,,,-99.99,289.000000,,2013-01-14 20:04:00,
2013-01-14 15:13:00,61.0,38.0,-100.00,WNW,300,6.0,16.0,43,0.00,,,-99.99,289.000000,,2013-01-14 20:13:00,
2013-01-14 15:23:00,61.0,38.0,-100.00,WNW,300,6.0,16.0,43,0.00,,,-99.99,289.000000,,2013-01-14 20:23:00,
2013-01-14 15:53:00,56.0,38.0,-100.00,NW,313,6.0,13.0,50,0.00,,,-99.99,160.000000,,2013-01-14 20:53:00,
2013-01-14 16:03:00,56.0,38.0,-100.00,NW,313,6.0,13.0,50,0.00,,,-99.99,160.000000,,2013-01-14 21:03:00,
2013-01-14 16:13:00,56.0,38.0,-100.00,NW,313,6.0,13.0,50,0.00,,,-99.99,160.000000,,2013-01-14 21:13:00,
2013-01-14 16:23:00,56.0,38.0,-100.00,NW,313,6.0,13.0,50,0.00,,,-99.99,160.000000,,2013-01-14 21:23:00,
2013-01-14 16:53:00,51.0,34.0,-100.00,NW,309,6.0,18.0,52,0.00,,,-99.99,22.000000,,2013-01-14 21:53:00,
2013-01-14 17:03:00,51.0,34.0,-100.00,NW,309,6.0,18.0,52,0.00,,,-99.99,22.000000,,2013-01-14 22:03:00,
2013-01-14 17:12:00,51.0,34.0,-100.00,NW,309,6.0,18.0,52,0.00,,,-99.99,22.000000,,2013-01-14 22:12:00,
2013-01-14 17:23:00,51.0,34.0,-100.00,NW,309,6.0,18.0,52,0.00,,,-99.99,22.000000,,2013-01-14 22:23:00,
2013-01-14 17:53:00,47.0,30.0,-100.00,NW,305,4.0,12.0,51,0.00,,,-99.99,1.000000,,2013-01-14 22:53:00,
2013-01-14 18:03:00,47.0,30.0,-100.00,NW,305,4.0,12.0,51,0.00,,,-99.99,1.000000,,2013-01-14 23:03:00,
2013-01-14 18:12:00,47.0,30.0,-100.00,NW,305,4.0,12.0,51,0.00,,,-99.99,1.000000,,2013-01-14 23:12:00,
2013-01-14 18:23:00,47.0,30.0,-100.00,NW,305,4.0,12.0,51,0.00,,,-99.99,1.000000,,2013-01-14 23:23:00,
2013-01-14 18:53:00,43.0,30.0,-100.00,WNW,297,2.0,9.0,60,0.00,,,-99.99,0.000000,,2013-01-14 23:53:00,
2013-01-14 19:03:00,43.0,30.0,-100.00,WNW,297,2.0,9.0,60,0.00,,,-99.99,0.000000,,2013-01-15 00:03:00,
2013-01-14 19:12:00,43.0,30.0,-100.00,WNW,297,2.0,9.0,60,0.00,,,-99.99,0.000000,,2013-01-15 00:12:00,
2013-01-14 19:23:00,43.0,30.0,-100.00,WNW,297,2.0,9.0,60,0.00,,,-99.99,0.000000,,2013-01-15 00:23:00,
2013-01-14 19:53:00,42.0,28.0,-100.00,NW,313,4.0,9.0,58,0.00,,,-99.99,0.000000,,2013-01-15 00:53:00,
2013-01-14 20:02:00,42.0,28.0,-100.00,NW,313,4.0,9.0,58,0.00,,,-99.99,0.000000,,2013-01-15 01:02:00,
2013-01-14 20:12:00,42.0,28.0,-100.00,NW,313,4.0,9.0,58,0.00,,,-99.99,0.000000,,2013-01-15 01:12:00,
2013-01-14 20:22:00,42.0,28.0,-100.00,NW,313,4.0,9.0,58,0.00,,,-99.99,0.000000,,2013-01-15 01:22:00,
2013-01-14 20:53:00,41.0,27.0,-100.00,NNW,327,2.0,9.0,57,0.00,,,-99.99,0.000000,,2013-01-15 01:53:00,
2013-01-14 21:03:00,41.0,27.0,-100.00,NNW,327,2.0,9.0,57,0.00,,,-99.99,0.000000,,2013-01-15 02:03:00,
2013-01-14 21:12:00,41.0,27.0,-100.00,NNW,327,2.0,9.0,57,0.00,,,-99.99,0.000000,,2013-01-15 02:12:00,
2013-01-14 21:23:00,41.0,27.0,-100.00,NNW,327,2.0,9.0,57,0.00,,,-99.99,0.000000,,2013-01-15 02:23:00,
2013-01-14 21:53:00,41.0,25.0,-100.00,NW,314,4.0,12.0,52,0.00,,,-99.99,0.000000,,2013-01-15 02:53:00,
2013-01-14 22:03:00,41.0,25.0,-100.00,NW,314,4.0,12.0,52,0.00,,,-99.99,0.000000,,2013-01-15 03:03:00,
2013-01-14 22:12:00,41.0,25.0,-100.00,NW,314,4.0,12.0,52,0.00,,,-99.99,0.000000,,2013-01-15 03:12:00,
2013-01-14 22:22:00,41.0,25.0,-100.00,NW,314,4.0,12.0,52,0.00,,,-99.99,0.000000,,2013-01-15 03:22:00,
2013-01-14 22:53:00,38.0,24.0,-100.00,NW,307,2.0,10.0,57,0.00,,,0.01,0.000000,,2013-01-15 03:53:00,
2013-01-14 23:03:00,38.0,24.0,-100.00,NW,307,2.0,10.0,57,0.00,,,0.01,0.000000,,2013-01-15 04:03:00,
2013-01-14 23:12:00,38.0,24.0,-100.00,NW,307,2.0,10.0,57,0.00,,,0.01,0.000000,,2013-01-15 04:12:00,
2013-01-14 23:22:00,38.0,24.0,-100.00,NW,307,2.0,10.0,57,0.00,,,0.01,0.000000,,2013-01-15 04:22:00,
2013-01-14 23:52:00,36.0,26.0,-100.00,West,281,1.0,4.0,66,0.00,,,0.01,0.000000,,2013-01-15 04:52:00,